Provo, UT

3:10 AM MDT on June 27, 2017 (GMT -0600)
Provo Municipal

Weather History for KPVU - February, 2014

Change the Weather History Date:

Saturday, February 1, 2014

  Actual Average Record
Temperature  
Mean Temperature 26 °F -  
Max Temperature 30 °F 37 °F 62 °F (2003)
Min Temperature 21 °F 22 °F -14 °F (1985)
Degree Days  
Heating Degree Days 40    
Moisture  
Dew Point 21 °F    
Average Humidity 82    
Maximum Humidity 93    
Minimum Humidity 69    
Precipitation  
Precipitation 0.00 in - - ()
Sea Level Pressure  
Sea Level Pressure 29.99 in    
Wind  
Wind Speed 4 mph (NW)    
Max Wind Speed 10 mph    
Max Gust Speed -    
Visibility 10 miles    
Events Snow    
Averages and records for this station are not official NWS values.
T = Trace of Precipitation, MM = Missing Value Source: NWS Daily Summary

Daily Weather History Graph

Daily Weather History Graph

Search for Another Location

Airport or City:

Trip Planner

Search our weather history database for the weather conditions in past years. The results will help you decide how hot, cold, wet, or windy it might be!

Date:

Astronomy

Feb. 01, 2014 Rise Set
Actual Time 7:35 AM MST 5:45 PM MST
Civil Twilight 7:07 AM MST 6:14 PM MST
Nautical Twilight 6:34 AM MST 6:46 PM MST
Astronomical Twilight 6:02 AM MST 7:18 PM MST
Moon 8:27 AM MST (2/1) 8:25 PM MST (2/1)
Length of Visible Light 11h 07m
Length of Day
10h 10m
Waxing Crescent, 5% of the Moon is Illuminated
Feb 1
Waxing Crescent
Feb 6
First Quarter
Feb 14
Full
Feb 22
Last Quarter
Mar 1
New

Hourly Weather History & Observations

Time (MST) Temp. Windchill Dew Point Humidity Pressure Visibility Wind Dir Wind Speed Gust Speed Precip Events Conditions
12:15 AM 23.0 °F 15.8 °F 17.6 °F 80% 29.89 in 10.0 mi NW 5.8 mph - N/A   Scattered Clouds
12:35 AM 24.8 °F 20.5 °F 17.6 °F 74% 29.89 in 10.0 mi WNW 3.5 mph - N/A   Mostly Cloudy
12:55 AM 24.8 °F 19.1 °F 17.6 °F 74% 29.89 in 10.0 mi NW 4.6 mph - N/A   Scattered Clouds
1:15 AM 24.8 °F 16.1 °F 19.4 °F 80% 29.89 in 10.0 mi NW 8.1 mph - N/A   Mostly Cloudy
1:35 AM 24.8 °F 16.9 °F 19.4 °F 80% 29.90 in 10.0 mi NNW 6.9 mph - N/A   Overcast
1:55 AM 26.6 °F 19.1 °F 19.4 °F 74% 29.90 in 10.0 mi NNW 6.9 mph - N/A   Overcast
2:15 AM 24.8 °F 16.9 °F 17.6 °F 74% 29.90 in 10.0 mi NW 6.9 mph - N/A   Overcast
2:35 AM 24.8 °F 15.3 °F 17.6 °F 74% 29.91 in 10.0 mi NNW 9.2 mph - N/A   Overcast
2:55 AM 26.6 °F 16.8 °F 19.4 °F 74% 29.91 in 10.0 mi NNW 10.4 mph - N/A   Mostly Cloudy
3:15 AM 26.6 °F 20.0 °F 21.2 °F 80% 29.91 in 10.0 mi North 5.8 mph - N/A   Mostly Cloudy
3:35 AM 26.6 °F 20.0 °F 21.2 °F 80% 29.91 in 10.0 mi North 5.8 mph - N/A   Overcast
3:55 AM 24.8 °F 19.1 °F 21.2 °F 86% 29.92 in 10.0 mi North 4.6 mph - N/A   Scattered Clouds
4:15 AM 24.8 °F - 21.2 °F 86% 29.92 in 10.0 mi Calm Calm - N/A   Partly Cloudy
4:35 AM 23.0 °F - 19.4 °F 86% 29.93 in 10.0 mi Calm Calm - N/A   Scattered Clouds
4:55 AM 24.8 °F 20.5 °F 23.0 °F 93% 29.93 in 10.0 mi North 3.5 mph - N/A   Overcast
5:15 AM 24.8 °F - 19.4 °F 80% 29.94 in 10.0 mi Calm Calm - N/A   Scattered Clouds
5:35 AM 24.8 °F - 21.2 °F 86% 29.94 in 10.0 mi Calm Calm - N/A   Partly Cloudy
5:55 AM 23.0 °F - 21.2 °F 93% 29.95 in 10.0 mi Calm Calm - N/A   Scattered Clouds
6:15 AM 23.0 °F - 19.4 °F 86% 29.95 in 10.0 mi Calm Calm - N/A   Clear
6:35 AM 23.0 °F 18.4 °F 19.4 °F 86% 29.96 in 10.0 mi SW 3.5 mph - N/A   Clear
6:53 AM 21.2 °F 14.9 °F 19.4 °F 93% 29.98 in 10.0 mi NNE 4.6 mph - N/A   Mostly Cloudy
7:51 AM 21.2 °F - 19.4 °F 93% 29.99 in 15.0 mi Calm Calm - N/A   Mostly Cloudy
8:51 AM 24.8 °F - 21.2 °F 86% 30.00 in 15.0 mi Calm Calm - N/A   Mostly Cloudy
9:53 AM 28.4 °F - 24.8 °F 86% 30.02 in 15.0 mi Calm Calm - N/A   Mostly Cloudy
10:53 AM 28.4 °F 22.2 °F 21.2 °F 74% 30.04 in 15.0 mi WSW 5.8 mph - N/A   Overcast
11:55 AM 30.2 °F 24.3 °F 21.2 °F 69% 30.04 in 10.0 mi WSW 5.8 mph - N/A   Overcast
12:56 PM 30.2 °F - 21.2 °F 69% 30.03 in 8.0 mi Calm Calm - N/A Snow Light Snow
1:55 PM 30.2 °F 25.4 °F 23.0 °F 75% 30.02 in 10.0 mi SSW 4.6 mph - N/A   Mostly Cloudy
2:54 PM 28.4 °F 24.6 °F 23.0 °F 80% 30.03 in 10.0 mi West 3.5 mph - N/A   Mostly Cloudy
3:55 PM 28.4 °F 23.3 °F 21.2 °F 74% 30.04 in 10.0 mi West 4.6 mph - N/A   Mostly Cloudy
4:55 PM 26.6 °F 22.6 °F 19.4 °F 74% 30.05 in 10.0 mi West 3.5 mph - N/A   Mostly Cloudy
8:53 PM 26.6 °F - 23.0 °F 86% 30.10 in 15.0 mi Calm Calm - N/A   Mostly Cloudy
9:15 PM 28.4 °F - 21.2 °F 74% 30.10 in 10.0 mi Calm Calm - N/A   Overcast
9:35 PM 26.6 °F - 21.2 °F 80% 30.10 in 10.0 mi Calm Calm - N/A   Scattered Clouds
9:55 PM 26.6 °F 21.2 °F 21.2 °F 80% 30.11 in 10.0 mi SSW 4.6 mph - N/A   Mostly Cloudy
10:15 PM 26.6 °F - 23.0 °F 86% 30.11 in 10.0 mi Calm Calm - N/A   Overcast
10:35 PM 26.6 °F - 23.0 °F 86% 30.11 in 10.0 mi Calm Calm - N/A   Overcast
10:55 PM 26.6 °F 22.6 °F 24.8 °F 93% 30.11 in 10.0 mi ESE 3.5 mph - N/A   Overcast
11:15 PM 26.6 °F 21.2 °F 23.0 °F 86% 30.11 in 4.0 mi SE 4.6 mph - N/A   Mostly Cloudy
11:35 PM 26.6 °F - 24.8 °F 93% 30.10 in 10.0 mi Calm Calm - N/A   Overcast
11:55 PM 26.6 °F - 24.8 °F 93% 30.10 in 10.0 mi Calm Calm - N/A   Overcast